www.pogodaiklimat.ru

Погода и климат >> Архив погоды >> Россия >> Камчатский край >> Эссо


АРХИВ ПОГОДЫ в Эссо

Время (UTC), дата Ветер
(напр.,м/с)
 
Видим.   Явления Облачность Т
(С)
Тd
(С)
f
(%)
Тe
(С)
Тes
(С)
Комфортность P
(гПа)
Po
(гПа)
Тmin
(С)
Tmax
(С)
R
(мм)
R24
(мм)
S
(см)
21 19.03 штиль 0
{4}
10 км слаб. ливневой снег 10/10 600 м
[Cb cap]
-18.9 -22.5 73 -19 -19 1005.1 942.5 -23.5 0.2 61
00 20.03 СВ 2 20 км слаб. ливневой снег 10/8 1000 м
[Cb cap Cs]
-14.4 -19.3 66 -19 -18 1002.9 941.6
03 20.03 С 2 10 км слаб. ливневой снег 10/10 600 м
[Cb cap]
-10.7 -15.4 68 -15 -15 1000.4 940.0
06 20.03 СВ 2 4000 м ливневой снег 10/10 300 м
[Cb cap]
-10.6 -12.9 83 -15 -15 1001.7 941.3
09 20.03 штиль 0
{5}
10 км слаб. ливневой снег 10/10 300 м
[Cb cap]
-10.8 -13.0 84 -11 -11 1001.8 941.3 -10.3 3
12 20.03 СВ 2 10 км слаб. ливневой снег 10/10 600 м
[Cb cap]
-14.5 -17.0 81 -19 -19 1002.5 941.1
15 20.03 штиль 0 10 км слаб. ливневой снег 10/10 600 м
[Cb cap]
-15.9 -18.4 81 -16 -16 1004.5 942.7
18 20.03 ЮЗ 2 10 км слаб. ливневой снег 10/10 600 м
[Cb cap]
-15.1 -18.2 77 -20 -20 1004.3 942.7
21 20.03 Ю 2
{6}
10 км слаб. ливневой снег 10/10 600 м
[Cb cap]
-15.2 -18.9 73 -20 -20 1003.5 941.9 -16.0 2 65
00 21.03 Ю 3 20 км слаб. ливневой снег 10/8 1000 м
[Cb cap Cs]
-13.0 -16.9 72 -19 -18 1002.4 941.4
03 21.03 ЮЗ 2 10 км слаб. ливневой снег 10/10 600 м
[Cb cap]
-11.7 -18.1 59 -16 -16 1003.5 942.7
06 21.03 ЮЗ 2 20 км слаб. ливневой снег 10/10 1000 м
[Cb cap]
-11.7 -19.1 54 -16 -16 1004.9 944.0
09 21.03 Ю 3
{7}
20 км слаб. ливневой снег 9/8 1000 м
[Cb cap Ci fib]
-13.5 -19.6 60 -20 -20 1008.2 946.7 -11.2 0.5
12 21.03 Ю 3 20 км слаб. ливневой снег 9/9 1000 м
[Cb cap Ci fib]
-14.2 -18.3 71 -21 -21 1009.3 947.6
15 21.03 ЮЗ 1 20 км {ливн. осадки} 10/10 1000 м
[Sc]
-19.5 -22.6 76 -22 -22 1012.5 949.3
18 21.03 ЮЗ 1 20 км слаб. ливневой снег 9/6 1000 м
[Cb cap Ci fib]
-19.5 -22.8 75 -22 -22 1015.3 952.0
21 21.03 ЮЗ 1
{7}
50 км в посл. час ливневой снег 9/3 1000 м
[Sc Ac trans Ci fib]
-18.4 -22.2 72 -21 -21 1014.7 951.7 -21.0 0.2 65
00 22.03 Ю 2 50 км {ливн. осадки} 3/3 1000 м
[Sc]
-11.9 -20.8 48 -16 -12 1012.7 951.3
03 22.03 штиль 0 50 км 8/5 1000 м
[Sc]
-5.9 -18.9 35 -6 -3 1010.6 950.7
06 22.03 штиль 0 50 км 9/8 1000 м
[Sc Ci sp]
-5.4 -16.3 42 -6 -5 1009.0 949.3
09 22.03 штиль 0
{4}
20 км слаб. ливневой снег 10/10 1000 м
[Cb cap]
-7.9 -12.8 68 -8 -8 1008.2 948.0 -3.0 0.0
12 22.03 В 2 10 км слаб. ливневой снег 10/10 600 м
[Cb cap]
-5.9 -12.0 62 -10 -10 1006.4 946.7
15 22.03 ЮВ 3 10 км слаб. ливневой снег 10/10 600 м
[Cb cap]
-6.1 -11.0 68 -11 -11 1004.9 945.3
18 22.03 ЮВ 3 10 км слаб. ливневой снег 10/10 600 м
[Cb cap]
-6.2 -13.8 55 -11 -11 1003.6 944.0
21 22.03 ЮВ 3
{10}
20 км слаб. ливневой снег 9/8 600 м
[Cb cap Cs]
-4.2 -12.4 53 -9 -9 999.0 940.1 -8.2 0.2 63
00 23.03 СЗ 4
{10}
20 км {ливн. осадки} 9/8 1000 м
[Sc Ac trans Ci fib]
-2.2 -12.9 44 -7 -7 995.4 937.1
03 23.03 В 2
{16}
20 км слаб. ливневой снег {метель} 10/10 600 м
[Cb cap]
-0.9 -11.9 43 -4 -4 991.5 933.8
06 23.03 С 4
{10}
20 км слаб. ливневой снег 10/10 600 м
[Cb cap]
-2.9 -9.8 59 -8 -8 990.1 932.0
09 23.03 С 3
{16}
20 км слаб. ливневой снег 10/10 600 м
[Cb cap]
-4.0 -10.8 59 -9 -9 990.3 932.0 -0.9 0.3
12 23.03 СВ 2 20 км слаб. ливневой снег 10/10 600 м
[Cb cap]
-4.7 -11.7 58 -8 -8 988.9 930.5
15 23.03 СВ 2 20 км {ливн. осадки} 10/10 1000 м
[Sc]
-4.6 -12.7 53 -8 -8 989.1 930.7
18 23.03 СВ 4 20 км слаб. ливневой снег 10/10 600 м
[Cb cap]
-4.9 -12.5 55 -11 -11 989.1 930.7
21 23.03 С 2
{9}
50 км {ливн. осадки} 10/8 1000 м
[Sc Cs]
-4.8 -14.5 47 -8 -8 988.9 930.5 -5.3 0.0 64
00 24.03 С 2 50 км {ливн. осадки} 10/10 1000 м
[Sc]
-4.1 -14.1 46 -8 -8 989.3 931.0
03 24.03 Ю 1 50 км 10/8 1000 м
[Sc Cs]
-1.4 -15.2 34 -3 -3 989.8 932.0
06 24.03 Ю 2 50 км 9/6 1000 м
[Sc Ci sp]
-3.8 -14.0 45 -7 -7 988.9 930.7
09 24.03 ЮЗ 1
{9}
20 км 10/4 1000 м
[Sc Ci sp]
-8.1 -14.7 59 -10 -10 991.0 932.0 -1.2
12 24.03 ЮЗ 1 20 км 8/8 1000 м
[Sc]
-13.9 -17.0 77 -16 -16 992.3 932.0
15 24.03 ЮЗ 1 20 км 4/4 1000 м
[Sc]
-17.1 -20.1 77 -20 -20 992.1 930.7
18 24.03 С 1 20 км 3/3 1000 м
[Sc]
-21.8 -24.6 78 -25 -25 992.9 930.7
21 24.03 В 1
{3}
50 км 3/3 1000 м
[Sc]
-14.9 -18.8 72 -17 -16 991.6 930.8 -21.8 64
00 25.03 С 2
{10}
50 км 9/4 1000 м
[Sc Cs]
-9.7 -19.4 45 -14 -10 990.4 930.9
03 25.03 С 4 20 км 9/9 1000 м
[Sc]
-9.0 -19.1 44 -16 -15 989.4 930.7
06 25.03 С 2 50 км 8/4 1000 м
[Sc Ci sp]
-9.2 -17.9 49 -13 -13 990.1 930.7
09 25.03 С 2
{10}
20 км 3/1 1000 м
[Sc Ac trans]
-13.2 -20.1 56 -18 -18 992.5 932.0 -8.4
12 25.03 ЮЗ 1 20 км ясно -17.3 -20.5 76 -20 -20 993.5 932.0
15 25.03 ЮЗ 1 10 км слаб. ливневой снег 10/10 600 м
[Cb cap]
-15.3 -18.9 74 -18 -18 991.6 930.7
18 25.03 Ю 1 10 км слаб. ливневой снег 10/10 600 м
[Cb cap]
-14.3 -17.1 79 -17 -17 991.3 930.7
21 25.03 ЮЗ 1
{4}
10 км слаб. ливневой снег 10/10 600 м
[Cb cap]
-11.5 -14.5 78 -14 -14 990.2 930.3 -17.7 0.4 63
00 26.03 З 2 50 км {ливн. осадки} 9/5 1000 м
[Sc Cs]
-6.6 -16.5 45 -10 -7 988.4 929.6
03 26.03 З 2 20 км слаб. ливневой снег 10 баллов -5.2 -13.5 52 -9 -9 989.2 930.7
06 26.03 З 1 50 км {ливн. осадки} 9/5 1000 м
[Sc Ci fib]
-6.6 -13.9 56 -9 -8 989.5 930.7
09 26.03 СЗ 1
{7}
20 км слаб. ливневой снег 9/9 1000 м
[Cb cap]
-8.5 -14.3 63 -11 -11 990.0 930.7 -5.0 0.0
12 26.03 Ю 2 20 км слаб. ливневой снег 9/9 1000 м
[Cb cap]
-8.5 -15.1 59 -13 -13 990.0 930.7
15 26.03 З 1 20 км 10 баллов -8.3 -14.7 60 -10 -10 991.3 932.0
18 26.03 ЮЗ 2 20 км слаб. ливневой снег 10 баллов -8.1 -13.5 65 -12 -12 992.6 933.3

 

Местоположение метеостанции Эссо (Камчатский край, Россия): широта 55.93 долгота 158.70 высота над уровнем моря 481 м.

В архиве по умолчанию представлена погода в Эссо за последнюю неделю. Архивные данные за месяц целиком и за предыдущие месяцы, начиная с января 2011 года, Вы можете получить, выбрав интересующий диапазон дат из раскрывающегося списка и нажав кнопку "Ввод!".


*Определитесь, кто Вы:
робот инопланетянин человек

Внимание! Время в таблицах - всемирное. Для получения местного времени необходимо прибавить поправку, которая равна 12 ч.

Смотрите также архив погоды в соседних городах и на ближайших метеорологических станциях:

Погода в Козыревске (Камчатский край, Россия) (70 км)
Погода в Долиновке (Камчатский край, Россия) (92 км)
Погода в Ключах (Камчатский край, Россия) (137 км)
Погода в Мильково (Камчатский край, Россия) (140 км)
Погода в Усть-Хайрюзово (Камчатский край, Россия) (177 км)
Погода в Пущино (Камчатский край, Россия) (200 км)
Погода в Тигиле (Камчатский край, Россия) (203 км)
Погода в Иче (Камчатский край, Россия) (204 км)
Погода в Семячике (Камчатский край, Россия) (215 км)
Погода в Усть-Камчатске (Камчатский край, Россия) (250 км)

Пояснения к столбцам:

Ветер - указаны скорость ветра в м/с - средняя за 10 мин, порывы в срок и между сроками (в фигурных скобках) и направление, откуда дует ветер: С - северный, СВ - северо-восточный, В - восточный, ЮВ - юго-восточный, Ю - южный, ЮЗ - юго-западный, З - западный, СЗ - северо-западный.
Видимость - горизонтальная дальность видимости в метрах или километрах. При видимости от 1 до 10 км при отсутствии осадков обычно наблюдается дымка, при ухудшении видимости до 1 км и менее - туман. В сухую погоду видимость может ухудшаться дымом, пылью или мглою.
Явления - указаны атмосферные явления, наблюдавшиеся в срок или в последний час перед сроком; фигурными скобками обозначены явления, наблюдавшиеся между сроками (за 1-3 часа до срока); квадратными скобками обозначены град или гололедные отложения с указанием их диаметра в мм.
Облачность - указаны через наклонную черту общая и нижняя облачность в баллах и высота нижней границы облаков в метрах; квадратными скобками обозначены формы облаков: Ci - перистые, Cs - перисто-слоистые, Cc - перисто-кучевые, Ac - высококучевые, As - высокослоистые, Sc - слоисто-кучевые, Ns - слоисто-дождевые, Cu - кучевые, Cb - кучево-дождевые. Подробнее классификацию облаков см. в Атласе облаков (PDF).
T - Температура воздуха - температура, измеренная на высоте 2 м над землей.
Td - Температура точки росы - температура, при понижении до которой содержащийся в воздухе водяной пар достигнет насыщения.
f - Относительная влажность воздуха - влажноcть воздуха, измеренная на высоте 2 м над землей.
Te - Эффективная температура - температура, которую ощущает одетый по сезону человек в тени. Характеристика душности погоды. При расчете учитывается влияние влажности воздуха и скорости ветра на теплоощущения человека.
Tes - Эффективная температура на солнце - температура, которую ощущает человек, с поправкой на солнечный нагрев. Характеристика знойности погоды. Зависит от высоты солнца над горизонтом, облачности и скорости ветра. Ночью, в пасмурную погоду, а также при ветре 12 м/с и более поправка равна нулю.
P - Атмосферное давление - приведенное к уровню моря атмосферное давление.
Po - Атмосферное давление - измеренное на уровне метеостанции атмосферное давление.
Tmin - Минимальная температура - минимум температуры воздуха на высоте 2 м над землей.
Tmax - Максимальная температура - максимум температуры воздуха на высоте 2 м над землей.
R - Количество осадков - Количество выпавших осадков за период времени, мм. При наведении курсора мыши на число - период времени, за который выпало указанное количество осадков.
R24 - Количество осадков - Количество выпавших осадков за 24 часа, мм.
S - Снежный покров - Высота снежного покрова, см. При наведении курсора мыши на число - состояние снежного покрова и степень покрытия местности в баллах.